COSMOS 2251 DEB

Satellite information

Favourite Embed

Satellite Type and Status

DEBRISIN ORBIT

Key statistics

Satellite COSMOS 2251 DEB at a glance.

Uptime

11764

Days in orbit

Revolutions

≈ 14.7

Per day

Orbit

LEO

Low Earth Orbit

Inclination

74.0

Latest

Satellite identification and parameters

Extended collection of information and parameters for COSMOS 2251 DEB.

Object identification

Identified? True

Debris? True

Object name: COSMOS 2251 DEB

International designator: 1993-036AVV

Object number (NORAD): 35979

Object ID (CCSDS): 35979

Country: COMMONWEALTH OF INDEPENDENT STATES (CIS)

Current information (Y/N): Y

RCS size: SMALL

Orbital parameters

Period: 97.779 minutes

Inclination: 74.0095 deg

SMA: 7030.592 km

Apoapsis: 696.882 km

Periapsis: 608.032 km

RAAN: 84.2967 deg

Eccentricy: 0.00631888

Argument of periapsis: 243.0615 deg

Mean anomaly: 295.7633 deg

Mean motion: 14.72702156 rev/day

Mean motion (dot): 0.00005238 rev/day2

B* drag term: 0.00080027457 1/REarth

Two-line elements (TLE)

Creation date: Aug. 30, 2025, 3:38 a.m.

Reference frame: TEME

Reference center: EARTH

Epoch: Aug. 29, 2025, 7:42 a.m. UTC

TLE line 0: 0 COSMOS 2251 DEB

TLE line 1: 1 35979U 93036AVV 25241.32139350 .00005238 00000-0 80027-3 0 9992

TLE line 2: 2 35979 74.0095 84.2967 0063189 243.0615 295.7633 14.72702156870807

Live tracking on map

Real-time ground track for satellite COSMOS 2251 DEB.

In-orbit conjunctions

A list of the most updated potential collisions computed for object COSMOS 2251 DEB.

Target Orbit TCA Probability of collision Miss distance Type
SL-14 R/B LEO 2025-06-10 22:25:53 0.0002099328 377.0 (m) ROCKET BODY
STEP 2 LEO 2025-01-03 01:17:15 0.0003087599 901.0 (m) PAYLOAD
CZ-6A DEB SSO 2024-12-27 18:34:16 0.000145478 64.0 (m) DEBRIS
BPA-2/SL-24 R/B SSO 2024-12-25 03:52:04 0.0001618801 82.0 (m) ROCKET BODY
CZ-6A DEB LEO 2024-12-19 15:22:38 0.0001907603 99.0 (m) DEBRIS

Associated space launch

Military communications satellite. Destroyed in a collision with Iridium 33.

COSMOS 2251 DEB was lifted into orbit during the mission ‘Kosmos-3M | Strela-2M 51’, on board a Kosmos-3M space rocket.

The launch took place on June 16, 1993, 4:17 a.m. from 132/1 (132L).

For more information about the launch, click the button.

Launch to space Kosmos-3M | Strela-2M 51
Kosmos-3M | Strela-2M 51

Agency: N/A

Status: Launch Successful

Launch date: June 16, 1993, 4:17 a.m. UTC

Rocket: Kosmos-3M

Launch pad: 132/1 (132L)

Location: Plesetsk Cosmodrome, Russian Federation

...

Latest news about this satellite

There are no fresh news available about this satellite. Check back as we update our databases every day.


Newsletter sign-up

Weekly statistics, charts and insights to help you stay on top of the space industry.